SCP
2 2 2 2 2 1 2 3 2 1 1 1 2 3 3 3 2 1 1 1 1 1 1 1 0 0 0 0 0 0 0 0 0 0 0 0 0 0 0 0 0 0 0
2 1 1 1 1 1 2 2 2 1 0 1 1 1 1 1 1 1 1 1 1 1 1 1 0 0 0 0 0 1 0 0 0 0 0 0 0 0 0 0 0 0 0
1 1 1 1 1 1 1 1 1 0 0 0 0 0 0 0 0 0 0 0 1 1 1 0 0 0 0 0 1 1 1 0 0 0 0 0 0 0 0 0 0 0 0
1 1 1 0 0 0 0 0 0 0 0 0 0 0 0 0 0 0 0 0 0 0 0 0 0 0 0 0 0 1 0 0 0 0 0 0 0 0 0 0 0 0 0
0 0 0 0 0 0 0 0 0 0 0 0 0 0 0 0 0 0 0 0 0 0 0 0 0 0 0 0 0 0 0 0 0 0 0 0 0 0 0 0 0 0 0
0 0 0 0 0 0 0 0 0 0 0 0 0 0 0 0 0 0 0 0 0 0 0 0 0 0 0 0 0 0 0 0 0 0 0 0 0 0 0 0 0 0 0
0 0 0 0 0 0 0 0 0 0 0 0 0 0 0 0 0 0 0 0 0 0 0 0 0 0 0 0 0 0 0 0 0 0 0 0 0 0 0 0 0 0 0
0 0 0 0 0 0 0 0 0 0 0 0 0 0 0 0 0 0 0 0 0 0 0 0 0 0 0 0 0 0 0 0 0 0 0 0 0 0 0 0 0 0 0
0 0 0 0 0 0 0 0 0 0 0 0 0 0 0 0 0 0 0 -0 0 0 0 0 0 0 0 0 0 0 0 0 0 0 0 0 0 0 0 0 0 0 0
0 0 0 0 0 0 0 0 0 0 0 0 0 0 0 0 0 0 0 0 0 0 0 0 0 0 0 0 0 0 0 0 0 0 0 0 0 0 0 0 0 0 0
0 0 0 0 0 0 0 0 0 0 0 0 0 0 0 0 0 0 0 0 0 0 0 0 0 0 0 0 0 0 0 0 0 0 0 0 0 0 0 0 0 0 0
0 0 0 0 0 0 0 0 0 0 0 0 0 0 0 0 0 0 0 0 0 0 0 0 0 0 0 0 0 0 0 0 0 0 0 0 0 0 0 0 0 0 0
0 0 0 0 0 0 0 0 0 0 0 0 0 0 0 0 0 0 0 0 0 0 0 0 0 0 0 0 0 0 0 0 0 0 0 0 0 0 0 0 0 0 0
0 0 0 0 0 0 0 0 0 0 0 0 0 0 0 0 0 0 0 0 0 0 0 0 0 0 0 0 0 0 0 0 0 0 0 0 0 0 0 0 0 0 0
0 0 0 0 0 0 0 0 0 0 0 0 0 0 0 0 0 0 0 0 0 0 0 0 0 0 0 0 0 0 0 0 0 0 0 0 0 0 0 0 0 0 0
0 0 0 0 0 0 0 0 0 0 0 0 0 0 0 0 0 0 0 0 0 0 0 0 0 0 0 0 0 0 0 0 0 0 0 0 0 0 0 0 0 0 0
0 0 0 0 0 0 0 0 0 0 0 0 0 0 0 0 0 0 0 0 0 0 0 0 0 0 0 0 0 0 0 0 0 0 0 0 0 0 0 0 0 0 0
0 0 0 0 0 0 0 0 0 0 0 0 0 0 0 0 0 0 0 0 0 0 0 0 0 0 0 0 0 0 0 0 0 0 0 0 0 0 0 0 0 0 0
0 0 0 0 0 0 0 0 0 0 0 0 0 0 0 0 0 0 0 0 0 0 0 0 0 0 0 0 0 0 0 0 0 0 0 0 0 0 0 0 0 0 0
0 0 0 0 0 0 0 0 0 0 0 0 0 0 0 0 0 0 0 0 0 0 0 0 0 0 0 0 0 0 0 0 0 0 0 0 0 0 0 0 0 0 0
0 0 0 0 0 0 0 0 0 0 0 0 0 0 0 0 0 0 0 0 0 0 0 0 0 0 0 0 0 0 0 0 0 0 0 0 0 0 0 0 0 0 0
0 0 0 0 0 0 0 0 0 0 0 0 0 0 0 0 0 0 0 0 0 0 0 0 0 0 0 0 0 0 0 0 0 0 0 0 0 0 0 0 0 0 0
0 0 0 0 0 0 0 0 0 0 0 0 0 0 0 0 0 0 0 0 0 0 0 0 0 0 0 0 0 0 0 0 0 0 0 0 0 0 0 0 0 0 0
0 0 0 0 0 0 0 0 0 0 0 0 0 0 0 0 0 0 0 0 0 0 0 0 0 0 0 0 0 0 0 0 0 0 0 0 0 0 0 0 0 0 0
0 0 0 0 0 0 0 0 0 0 0 0 0 0 0 0 0 0 0 0 0 0 0 0 0 0 0 0 0 0 0 0 0 0 0 0 0 0 0 0 0 0 0
0 0 0 0 0 0 0 0 0 0 0 0 0 0 0 0 0 0 0 0 0 0 0 0 0 0 0 0 0 0 0 0 0 0 0 0 0 0 0 0 0 0 0
Wind_Speed
6 6 6 4 4 3 2 2 2 2 2 1 1 2 1 2 2 2 2 2 2 3 4 4 4 4 4 4 4 3 3 2 1 0 2 2 2 2 2 2 2 2 2
5 6 5 5 5 4 3 3 3 3 3 1 1 1 1 1 1 2 2 2 2 3 5 5 4 4 4 4 4 3 3 2 2 2 1 2 3 2 1 1 1 1 2
5 5 5 4 3 3 2 2 2 2 2 2 1 1 1 1 2 2 3 3 3 4 3 3 4 4 4 4 5 5 5 3 2 2 3 2 2 2 2 1 1 2 2
2 2 3 2 2 1 0 2 1 1 1 2 2 2 1 1 2 2 2 3 3 3 2 3 4 4 4 4 5 5 4 4 3 2 2 2 3 1 2 2 2 2 3
1 2 3 3 3 2 1 0 0 0 0 1 2 2 1 0 1 1 2 3 3 3 3 2 2 4 4 5 5 4 5 4 4 4 3 2 1 2 2 3 3 3 3
3 3 4 4 4 4 3 2 2 2 2 1 2 3 3 2 1 1 1 2 2 2 3 3 2 2 2 4 5 5 6 6 5 4 4 4 3 4 4 4 4 4 3
3 4 5 5 6 6 5 4 4 4 4 3 3 3 4 3 3 2 1 1 1 1 2 2 2 2 2 3 3 4 6 6 6 6 5 5 4 4 4 3 3 4 3
4 6 6 7 7 7 7 6 6 6 5 5 5 4 5 3 3 4 3 3 3 3 3 2 2 3 3 3 2 3 4 5 6 6 6 5 5 5 5 4 3 3 3
5 6 7 7 7 7 7 7 7 7 7 7 6 6 6 5 5 5 4 4 4 4 4 3 3 3 3 3 2 2 3 4 5 5 6 5 5 5 5 5 5 4 3
5 6 6 6 6 6 6 7 7 8 8 8 7 7 7 7 6 5 6 6 6 5 5 5 4 4 3 3 3 3 3 4 4 4 5 5 4 4 5 5 5 6 5
5 6 5 5 6 6 7 7 8 8 9 9 9 8 8 8 7 7 8 7 7 6 7 6 6 5 5 4 3 4 4 4 4 4 5 6 5 4 5 5 5 6 5
6 6 6 6 6 7 8 8 8 9 10 10 9 9 9 8 8 9 10 9 8 8 8 7 6 7 6 5 5 5 4 5 5 5 5 6 5 6 5 5 6 6 6
7 6 6 7 8 9 9 9 9 10 10 9 9 10 10 10 10 11 11 9 9 9 8 8 8 8 8 7 6 6 6 6 6 6 6 6 6 6 5 6 6 6 6
8 7 8 9 9 9 9 10 11 10 10 10 10 10 12 12 12 11 10 10 10 9 10 9 9 9 8 8 7 7 7 6 6 6 6 7 7 8 7 6 7 6 6
9 10 10 10 10 10 10 9 10 10 10 10 10 12 12 11 10 10 10 10 10 11 10 9 9 9 8 8 9 8 8 7 7 6 6 7 9 10 8 7 7 7 6
10 10 10 10 10 10 10 9 10 10 9 9 11 11 11 11 11 11 11 10 10 10 9 9 10 9 8 11 14 10 7 7 7 7 6 7 9 11 12 12 12 11 9
11 10 10 10 10 10 10 10 11 10 9 10 11 11 10 11 11 12 10 9 10 9 9 10 10 10 11 13 13 13 8 7 7 7 6 6 6 8 7 9 11 12 13
10 10 10 10 10 10 10 10 11 11 11 11 12 11 11 11 11 10 10 10 8 8 8 9 9 9 11 14 14 13 8 7 8 8 8 7 8 7 8 8 8 8 9
10 10 10 11 10 11 11 11 11 11 12 12 12 11 11 11 11 11 10 9 8 8 8 7 8 9 10 12 13 11 6 6 8 8 7 8 8 9 10 9 8 8 7
9 10 10 11 11 12 11 11 12 12 13 13 12 12 11 11 12 11 10 9 8 9 8 8 8 8 9 10 12 11 5 6 6 6 6 9 9 9 11 10 9 9 7
11 11 11 11 11 12 11 12 13 13 13 13 13 12 11 11 11 11 10 9 8 8 8 8 8 8 9 10 11 11 6 7 6 5 5 5 8 10 11 10 8 9 7
11 11 11 12 12 11 11 13 13 13 13 13 13 12 11 10 10 8 8 8 8 8 7 7 7 6 7 8 9 12 11 9 7 6 5 4 7 9 10 8 7 9 9
11 11 12 13 12 11 10 13 14 13 13 13 12 12 11 9 8 8 8 7 6 6 5 5 6 5 5 6 9 10 11 12 7 5 6 6 6 6 6 7 9 10 7
12 11 12 13 14 13 12 12 13 12 13 13 12 10 9 8 8 6 6 5 5 5 5 5 5 5 4 4 4 4 5 7 7 5 5 6 5 4 4 5 7 6 6
10 10 12 13 15 14 14 13 12 12 12 12 10 9 8 7 7 5 5 5 5 5 5 5 4 5 5 6 8 6 5 5 5 5 3 3 3 4 4 4 5 5 6
12 12 13 14 14 14 14 13 12 12 11 10 9 7 6 6 5 5 4 4 4 5 7 7 5 5 5 5 8 9 7 7 8 5 4 4 4 4 5 6 6 6 7
Wind_Direction
62 60 56 62 74 61 41 21 359 339 337 305 275 274 305 320 329 302 305 285 248 229 217 220 213 199 196 199 186 169 179 190 169 157 316 312 284 272 247 249 254 269 279
47 43 43 41 46 45 36 35 21 349 347 333 296 278 253 274 279 305 306 273 258 245 232 219 214 205 195 195 191 176 169 184 166 151 109 340 341 342 15 334 273 307 317
41 23 27 36 40 41 39 56 36 17 356 345 344 349 352 344 355 335 320 307 284 257 251 240 227 216 203 201 199 187 177 183 191 182 157 160 236 305 320 324 327 324 316
34 7 351 350 355 324 213 91 67 40 13 25 65 63 50 3 335 322 318 315 313 299 276 256 240 229 219 215 211 198 188 171 184 195 198 178 166 185 307 311 312 308 295
331 309 299 295 298 290 277 156 117 71 26 91 110 103 98 211 283 320 351 348 344 341 332 297 254 237 224 220 217 205 200 192 184 180 170 170 175 185 217 278 302 304 279
304 304 297 292 291 285 280 270 252 247 238 194 171 159 164 179 166 19 7 350 333 334 344 340 328 299 262 236 223 215 210 208 200 192 184 176 175 184 195 236 272 291 286
278 283 279 278 276 274 270 263 256 255 248 233 222 207 200 200 200 210 216 248 287 293 311 332 319 313 298 276 242 221 222 214 210 206 205 202 205 181 184 215 256 278 291
262 265 268 269 271 273 270 264 260 262 258 247 242 235 224 215 219 221 218 223 229 245 259 277 290 292 290 290 272 242 232 220 219 220 214 210 212 200 198 200 215 273 280
268 269 271 272 272 274 273 269 266 265 263 257 253 252 243 231 228 229 227 231 236 245 249 256 264 273 275 270 261 248 245 234 226 226 223 222 218 205 207 206 202 218 262
290 284 282 281 278 273 271 270 260 259 263 262 257 255 248 244 240 235 235 235 237 238 249 255 255 257 260 260 254 247 243 239 234 225 227 229 224 213 207 207 208 210 225
297 291 290 289 285 282 278 274 271 267 267 263 258 256 254 249 243 240 241 238 236 230 232 238 245 252 253 244 241 250 249 239 240 236 227 231 225 217 214 208 207 211 215
289 288 291 295 291 285 280 274 269 264 261 260 259 258 258 254 245 242 243 237 235 234 230 231 234 244 248 240 233 242 247 242 240 240 233 232 223 222 217 212 214 215 213
293 296 296 293 288 283 280 276 271 266 266 264 261 262 262 258 252 248 245 239 234 235 231 224 229 235 237 238 235 232 234 238 241 239 236 236 227 230 224 218 219 218 217
290 290 289 287 285 284 283 281 280 277 276 273 268 265 262 257 254 251 247 242 236 233 233 228 227 230 231 232 234 232 233 235 240 239 236 236 230 230 228 223 220 214 216
292 290 288 288 287 287 286 284 283 283 282 279 275 269 266 263 260 256 252 246 237 235 232 229 228 228 226 230 227 225 229 232 240 243 241 241 238 234 227 221 216 207 210
289 290 291 292 290 288 288 287 285 284 283 280 278 277 274 271 267 262 257 252 245 238 229 227 227 226 228 228 222 214 220 225 234 245 250 252 250 243 234 226 216 207 206
290 293 292 288 288 287 287 287 285 285 282 280 280 278 276 275 273 271 265 254 248 243 233 228 224 226 229 229 230 226 216 221 230 238 246 255 249 238 235 228 220 218 217
291 292 290 289 287 287 288 287 288 287 285 285 283 282 280 277 273 269 266 261 255 245 239 233 227 225 231 228 229 231 223 222 231 236 239 246 251 239 226 223 219 220 219
287 286 287 289 291 292 292 294 294 292 290 289 286 283 280 279 276 270 266 263 257 252 244 237 228 223 233 229 227 222 210 221 234 238 240 240 246 237 218 215 215 216 218
291 291 292 295 296 295 296 297 297 295 293 290 287 283 277 274 272 268 265 261 254 251 248 244 233 225 230 230 226 213 203 220 233 240 243 238 240 237 215 214 211 210 203
293 295 297 299 298 299 300 300 299 297 295 294 290 286 279 272 268 265 261 257 251 248 243 244 239 230 229 231 228 213 201 212 223 233 240 240 234 229 218 214 213 204 182
299 300 302 303 302 302 302 303 303 302 300 297 294 290 283 277 277 264 261 256 247 242 240 240 243 235 229 226 228 219 209 203 213 226 231 238 232 222 212 210 205 182 170
302 304 305 307 308 307 305 305 306 307 305 302 299 296 291 282 276 270 266 260 243 234 232 227 231 233 223 220 222 221 214 208 209 223 225 231 226 212 206 204 186 175 172
308 308 311 314 315 315 312 307 307 309 308 306 305 303 299 293 286 272 262 255 242 226 221 224 222 223 218 211 203 202 202 203 209 217 218 214 213 205 182 172 177 180 169
308 310 315 316 316 317 315 314 313 313 313 310 308 309 303 299 296 285 266 256 243 229 219 219 211 209 218 215 196 185 188 188 190 180 185 190 187 185 174 170 166 160 150
314 317 319 318 318 317 316 316 317 317 316 315 315 313 309 305 301 298 295 267 251 249 236 231 219 221 226 211 193 191 188 180 170 173 187 192 188 180 175 165 153 152 149